CAPE
1 1 1 1 1 1 1 2 3 0 0 0 0 0 0 0 0 0 0 0 0 0 0 0 0 0 0 0 0 0 0 0 0 0 0 0 0 0 0 0 0 0 0
0 0 0 0 0 0 0 0 0 0 0 0 0 0 0 0 0 0 0 0 0 0 0 0 0 0 0 0 0 0 0 0 0 0 0 0 0 0 0 0 0 0 0
0 0 0 0 0 0 0 0 0 0 0 0 0 0 0 0 0 0 0 0 0 0 0 0 0 0 0 0 0 0 0 0 0 0 0 0 0 0 0 0 0 0 0
0 0 0 0 0 0 0 0 0 0 0 0 0 0 0 0 0 0 0 0 0 0 0 0 0 0 0 0 0 0 0 0 0 0 0 0 0 0 0 0 0 0 0
0 0 0 0 0 0 0 0 0 0 0 0 0 0 0 0 0 0 0 0 0 0 0 0 0 0 0 0 0 0 0 0 0 0 0 0 0 0 0 0 0 0 0
0 0 0 0 0 0 0 0 0 0 0 0 0 0 0 0 0 0 0 0 0 0 0 0 0 0 0 0 0 0 0 0 0 0 0 0 0 0 0 0 0 0 0
0 0 0 0 0 0 0 0 0 0 0 0 0 0 0 0 0 0 0 0 0 0 0 0 0 0 0 0 0 0 0 0 0 0 0 0 0 0 0 0 0 0 1
0 0 0 0 0 0 0 0 0 0 0 0 0 0 0 0 0 0 0 0 0 0 0 0 0 0 0 0 0 0 0 0 0 0 0 0 0 0 0 2 6 2 0
0 0 0 0 0 0 0 0 0 0 0 0 0 0 0 0 1 0 0 0 0 0 0 0 0 0 0 0 0 0 0 0 0 10 12 8 3 0 0 0 0 1 0
0 0 0 0 0 0 0 0 0 0 0 0 0 0 0 0 0 0 0 0 0 0 0 0 0 0 0 7 0 0 0 0 0 0 0 0 0 0 0 0 0 9 6
0 0 0 0 0 0 0 0 0 0 0 0 0 0 0 0 0 0 0 0 0 0 0 0 0 1 18 3 1 0 2 0 0 0 0 0 0 0 0 0 0 0 8
0 0 0 0 0 0 0 0 0 0 0 0 0 0 0 0 0 1 0 3 7 0 0 0 0 0 5 3 0 4 0 0 0 0 0 0 0 0 0 0 0 0 0
0 0 0 0 0 0 0 0 0 0 0 0 0 0 0 0 0 0 0 3 11 0 0 1 5 5 0 0 0 0 0 0 0 0 0 0 0 0 0 0 0 0 0
0 0 0 0 0 0 0 0 0 0 0 0 0 0 0 0 0 0 0 0 0 0 2 0 0 0 2 0 0 0 0 0 1 0 0 0 0 0 0 0 0 0 0
0 0 0 0 0 0 0 0 0 0 0 0 0 0 0 0 0 0 5 0 0 1 0 0 0 0 0 0 0 0 0 2 8 3 1 2 0 0 0 0 0 0 0
0 0 0 0 0 0 0 0 0 0 0 0 0 0 0 0 2 2 20 3 6 7 0 0 0 0 0 0 0 0 0 2 10 13 8 7 7 5 3 2 0 0 0
0 0 0 0 0 0 0 0 0 0 0 0 0 0 0 0 1 2 16 11 3 2 0 0 1 2 1 1 0 1 3 2 2 10 11 16 2 1 20 11 7 10 9
0 0 0 0 0 0 0 0 0 0 0 0 0 0 2 0 1 1 16 2 0 0 0 1 3 4 0 3 3 4 0 0 0 1 1 14 6 8 4 2 0 4 5
0 0 0 0 0 0 0 0 0 0 0 0 0 0 1 0 0 6 7 0 0 0 0 1 8 28 20 5 10 16 17 17 26 24 21 6 1 8 1 6 5 14 15
0 0 0 0 0 0 0 0 0 0 0 0 0 0 0 0 0 0 0 0 0 0 24 24 13 24 35 17 16 8 12 17 9 5 10 3 1 3 6 9 2 3 6
0 0 0 0 0 0 0 0 0 0 0 0 0 0 0 0 0 0 0 0 0 0 0 1 1 8 8 11 12 4 11 3 6 12 10 0 7 17 12 0 3 11 9
0 0 0 0 0 0 0 0 0 0 0 0 0 0 0 0 0 0 0 0 0 3 1 9 9 3 3 4 3 5 9 9 7 2 2 4 22 22 1 3 4 7 5
0 0 0 0 0 0 0 0 0 0 0 0 0 0 0 0 0 0 0 0 0 0 2 21 0 0 0 7 10 9 6 4 2 2 2 16 17 17 20 6 6 7 11
0 0 0 0 0 0 0 0 0 0 0 0 0 0 0 0 0 0 0 0 0 0 0 5 0 0 3 3 6 10 12 9 12 12 9 11 15 16 8 0 1 4 7
0 0 0 0 0 0 0 0 0 0 0 0 0 0 0 0 0 0 0 0 4 0 0 0 0 0 0 1 0 0 0 26 19 11 0 0 2 1 2 1 1 3 8
0 0 0 0 0 0 0 0 0 0 0 0 0 0 0 0 0 0 0 1 0 0 0 0 0 0 0 0 0 0 6 10 7 14 14 12 10 9 8 5 10 3 7
CIN
-0 -0 -0 -0 -0 -0 -0 -0 -0 -0 -0 -0 -0 -0 -0 -0 -0 -0 -0 -0 -0 -0 -0 -0 -0 -0 -0 -0 -0 -0 -0 -0 -0 -0 -0 -0 -0 -0 -0 -0 -0 -0 -0
-0 -0 -0 -0 -0 -0 -0 -0 -0 -0 -0 -0 -0 -0 -0 -0 -0 -0 -0 -0 -0 -0 -0 -0 -0 -0 -0 -0 -0 -0 -0 -0 -0 -0 -0 -0 -0 -0 -0 -0 -0 -0 -0
-0 -0 -0 -0 -0 -0 -0 -0 -0 -0 -0 -0 -0 -0 -0 -0 -0 -0 -0 -0 -0 -0 -0 -0 -0 -0 -0 -0 -0 -0 -0 -0 -0 -0 -0 -0 -0 -0 -0 -0 -0 -0 -0
-0 -0 -0 -0 -0 -0 -0 -0 -0 -0 -0 -0 -0 -0 -0 -0 -0 -0 -0 -0 -0 -0 -0 -0 -0 -0 -0 -0 -0 -0 -0 -0 -0 -0 -0 -0 -0 -0 -0 -0 -0 -0 -0
-0 -0 -0 -0 -0 -0 -0 -0 -0 -0 -0 -0 -0 -0 -0 -0 -0 -0 -0 -0 -0 -0 -0 -0 -0 -0 -0 -0 -0 -0 -0 -0 -0 -0 -0 -0 -0 -0 -0 -0 -0 -0 -0
-0 -0 -0 -0 -0 -0 -0 -0 -0 -0 -0 -0 -0 -0 -0 -0 -0 -0 -0 -0 -0 -0 -0 -0 -0 -0 -0 -0 -0 -0 -0 -0 -0 -0 -0 -0 -0 -0 -0 -0 -0 -0 -0
-0 -0 -0 -0 -0 -0 -0 -0 -0 -0 -0 -0 -0 -0 -0 -0 -0 -0 -0 -0 -0 -0 -0 -0 -0 -0 -0 -0 -0 -0 -0 -0 -0 -0 -0 -0 -0 -0 -0 -0 -0 -0 -0
-0 -0 -0 -0 -0 -0 -0 -0 -0 -0 -0 -0 -0 -0 -0 -0 -0 -0 -0 -0 -0 -0 -0 -0 -0 -0 -0 -0 -0 -0 -0 -0 -0 -0 -0 -0 -0 -0 -0 -2 -0 -0 -0
-0 -0 -0 -0 -0 -0 -0 -0 -0 -0 -0 -0 -0 -0 -0 -0 -0 -0 -0 -0 -0 -0 -0 -0 -0 -0 -0 -0 -0 -0 -0 -0 -2 -4 -8 -5 -7 -0 -0 -3 -0 -0 -0
-0 -0 -0 -0 -0 -0 -0 -0 -0 -0 -0 -0 -0 -0 -0 -0 -0 -0 -0 -0 -0 -0 -0 -0 -0 -0 -0 -0 -4 -0 -0 -0 -0 -0 -0 -0 -0 -0 -0 -0 -0 -0 -0
-0 -0 -0 -0 -0 -0 -0 -0 -0 -0 -0 -0 -0 -0 -0 -0 -0 -0 -0 -0 -0 -0 -0 -0 -0 -1 -0 -1 -1 -0 -9 -0 -0 -0 -0 -0 -0 -0 -0 -0 -0 -0 -1
-0 -0 -0 -0 -0 -0 -0 -0 -0 -0 -0 -0 -0 -0 -0 -0 -0 -0 -0 -0 -5 -0 -0 -0 -0 -5 -0 -4 -0 -0 -0 -0 -0 -0 -0 -0 -0 -0 -0 -0 -0 -0 -0
-0 -0 -0 -0 -0 -0 -0 -0 -0 -0 -0 -0 -0 -0 -0 -0 -0 -0 -0 -0 -3 -0 -0 -6 -0 -2 -0 -0 -0 -1 -0 -0 -0 -0 -0 -0 -0 -0 -1 -0 -0 -0 -0
-0 -0 -0 -0 -0 -0 -0 -0 -0 -0 -0 -0 -0 -0 -0 -0 -0 -0 -0 -0 -2 -0 -6 -0 -0 -0 -1 -0 -0 -0 -0 -0 -7 -0 -0 -0 -0 -0 -0 -0 -0 -0 -0
-0 -0 -0 -0 -0 -0 -0 -0 -0 -0 -0 -0 -0 -0 -0 -0 -0 -0 -0 -14 -0 -2 -0 -0 -0 -0 -0 -0 -0 -2 -10 -12 -4 -8 -9 -8 -0 -0 -0 -0 -0 -0 -0
-0 -0 -0 -0 -0 -0 -0 -0 -0 -0 -0 -0 -0 -0 -0 -0 -0 -0 -0 -4 -3 -0 -0 -0 -0 -0 -0 -0 -0 -0 -0 -0 -2 -2 -4 -4 -4 -9 -11 -7 -0 -0 -0
-0 -0 -0 -0 -0 -0 -0 -0 -0 -0 -0 -0 -0 -0 -0 -0 -0 -0 -2 -1 -1 -2 -0 -0 -11 -8 -11 -5 -0 -0 -0 -0 -0 -1 -2 -0 -0 -0 -3 -6 -0 -0 -0
-0 -0 -0 -0 -0 -0 -0 -0 -0 -0 -0 -0 -0 -0 -0 -0 -0 -0 -2 -3 -0 -0 -0 -13 -7 -3 -1 -0 -1 -0 -0 -4 -1 -1 -3 -0 -0 -0 -0 -0 -0 -1 -1
-0 -0 -0 -0 -0 -0 -0 -0 -0 -0 -0 -0 -0 -0 -0 -0 -0 -0 -2 -0 -0 -11 -0 -6 -0 -0 -0 -1 -0 -0 -0 -0 -0 -0 -0 -1 -1 -0 -1 -0 -0 -0 -0
-0 -0 -0 -0 -0 -0 -0 -0 -0 -0 -0 -0 -0 -0 -0 -0 -0 -0 -0 -0 -0 -0 -0 -0 -0 -0 -0 -0 -0 -0 -0 -0 -0 -0 -0 -0 -0 -0 -0 -0 -1 -0 -0
-0 -0 -0 -0 -0 -0 -0 -0 -0 -0 -0 -0 -0 -0 -0 -0 -0 -0 -0 -0 -0 -0 -0 -3 -2 -3 -2 -0 -0 -0 -1 -0 -0 -0 -0 -0 -1 -0 -0 -0 -4 -0 -0
-0 -0 -0 -0 -0 -0 -0 -0 -0 -0 -0 -0 -0 -0 -0 -0 -0 -0 -0 -0 -0 -0 -0 -0 -0 -2 -6 -3 -1 -3 -0 -0 -0 -0 -0 -0 -0 -0 -0 -0 -0 -0 -0
-0 -0 -0 -0 -0 -0 -0 -0 -0 -0 -0 -0 -0 -0 -0 -0 -0 -0 -0 -0 -3 -3 -0 -0 -0 -0 -0 -0 -0 -0 -1 -2 -0 -3 -0 -0 -0 -0 -0 -0 -0 -0 -0
-0 -0 -0 -0 -0 -0 -0 -0 -0 -0 -0 -0 -0 -0 -0 -0 -0 -0 -0 -12 -1 -0 -0 -0 -0 -0 -0 -1 -0 -1 -0 -0 -0 -0 -0 -0 -0 -0 -0 -0 -0 -0 -0
-0 -0 -0 -0 -0 -0 -0 -0 -0 -0 -0 -0 -0 -0 -0 -0 -0 -0 -0 -29 -20 -4 -0 -0 -0 -0 -0 -3 -0 -0 -0 -0 -1 -1 -5 -0 -0 -0 -0 -0 -0 -0 -0
-0 -0 -0 -0 -0 -0 -0 -0 -0 -0 -0 -0 -0 -0 -0 -0 -0 -0 -0 -6 -0 -0 -0 -0 -0 -0 -0 -0 -0 -0 -0 -0 -0 -0 -0 -0 -0 -0 -0 -0 -0 -0 -0
Wind_Speed
8 9 9 9 10 9 6 6 7 8 7 7 7 7 5 5 3 3 1 2 2 3 3 4 3 4 4 4 4 3 3 2 2 2 1 2 3 3 5 4 3 4 4
9 9 9 10 8 9 7 5 8 9 6 6 6 6 4 3 3 3 4 3 4 4 3 5 5 4 6 4 3 4 3 2 3 2 1 2 2 2 2 2 3 3 4
9 8 11 9 9 9 8 7 9 10 8 7 9 8 6 6 5 4 5 4 5 5 4 6 5 6 4 3 2 4 3 2 2 2 2 2 2 1 2 2 3 4 3
8 10 10 9 7 7 7 8 8 8 9 9 9 9 8 8 7 7 7 7 6 6 5 5 6 6 6 5 3 4 3 3 2 2 1 2 2 2 1 2 4 2 4
8 9 8 8 7 7 8 8 9 9 8 8 10 9 6 8 5 7 6 7 6 6 6 5 4 7 8 6 3 2 4 2 2 2 1 1 2 2 3 2 3 4 4
7 7 7 9 7 7 6 7 10 6 7 8 7 8 7 6 14 11 8 6 5 5 6 5 6 9 5 3 2 8 6 4 2 2 1 2 4 4 3 2 2 3 4
7 6 7 7 7 6 6 8 7 6 7 7 7 7 7 6 11 11 10 4 5 5 5 5 4 4 5 4 4 3 3 5 4 3 3 4 3 5 2 3 4 4 4
6 7 6 7 7 6 6 6 6 4 7 6 5 6 6 6 10 10 11 6 5 5 5 4 3 2 3 4 2 1 2 3 4 3 5 5 5 7 4 3 6 5 4
7 7 6 7 7 6 6 6 4 5 5 4 4 5 6 4 9 9 7 5 5 4 3 2 1 2 6 5 4 1 3 3 6 7 7 8 11 12 10 2 4 6 7
7 7 7 7 7 7 6 6 2 3 5 4 4 3 5 3 7 8 6 3 3 2 3 3 4 3 6 7 3 2 3 2 3 4 5 7 7 7 10 3 3 4 4
6 7 6 6 7 7 6 2 4 5 6 4 5 3 4 2 0 4 5 2 1 0 1 2 3 7 8 4 3 1 1 1 5 3 3 4 4 5 4 4 3 2 4
7 7 7 6 5 5 7 4 4 6 6 4 5 3 1 2 2 4 2 1 2 2 1 2 3 9 8 5 3 5 5 5 3 3 3 3 3 5 5 5 6 4 4
8 7 7 6 6 6 6 6 4 5 5 4 4 3 2 1 2 3 2 3 3 2 1 3 6 3 4 5 3 0 3 1 2 2 2 2 2 3 6 6 5 5 6
9 8 7 7 6 5 4 4 5 5 4 4 4 4 2 0 2 2 3 2 1 2 1 2 4 3 1 2 2 2 2 2 2 2 2 3 3 3 4 2 2 3 3
10 8 7 5 6 5 4 4 4 3 5 5 4 4 4 2 3 6 4 2 2 3 3 2 0 1 1 0 2 2 2 2 3 3 4 4 4 4 5 3 3 4 3
10 8 7 6 5 5 5 3 6 6 9 8 9 6 3 6 8 6 4 4 1 1 1 2 3 2 2 0 2 3 3 4 3 4 4 4 4 5 5 5 4 4 6
13 11 8 8 7 6 5 5 5 5 10 10 10 9 9 6 5 5 5 4 3 1 1 2 2 2 2 2 2 3 3 3 4 5 4 4 4 7 8 4 4 6 6
12 21 10 8 8 7 7 5 5 6 6 3 8 6 8 6 4 5 4 3 0 0 1 2 2 3 2 3 3 2 3 3 4 4 4 6 5 5 7 7 5 7 8
12 10 9 8 7 9 7 6 5 5 5 4 1 6 7 7 4 4 3 2 2 1 2 2 2 3 3 3 3 4 5 4 6 4 4 5 5 6 6 7 5 13 15
12 19 15 9 8 7 7 7 6 6 5 5 4 4 2 3 1 2 2 2 2 2 2 1 2 3 3 3 4 4 5 4 4 5 6 5 8 7 7 4 7 8 8
10 11 17 8 8 8 7 7 6 6 5 5 4 5 10 4 4 3 3 2 2 3 3 2 3 2 3 3 4 4 4 5 6 6 6 6 7 7 4 7 7 8 9
11 11 10 10 8 8 7 6 6 6 5 5 3 4 13 4 4 3 3 2 2 3 2 3 2 3 3 4 4 5 5 6 6 6 7 7 7 5 7 8 8 8 8
10 11 9 8 8 11 8 6 6 6 5 5 5 4 3 4 4 3 2 2 2 2 3 2 2 3 4 4 4 5 6 6 7 7 9 7 7 8 8 8 7 9 8
11 12 11 9 8 7 7 7 6 8 6 5 5 5 4 4 4 4 3 2 2 3 3 2 2 5 5 5 5 6 6 7 6 6 9 8 8 10 8 9 10 10 10
11 11 10 9 9 7 8 7 6 6 5 5 5 5 4 4 4 4 3 2 3 2 4 3 4 5 7 8 8 10 12 16 12 13 8 10 11 14 11 9 10 9 11
10 11 9 8 8 8 7 7 6 6 6 5 4 4 5 4 4 3 3 3 2 3 5 3 5 7 8 6 8 11 15 16 13 17 11 8 9 8 8 10 12 9 10
Wind_Direction
71 80 72 73 75 78 74 90 114 108 112 127 132 120 123 129 123 113 153 219 172 136 122 154 123 107 95 88 78 79 67 59 114 322 321 326 8 12 342 340 333 320 320
77 73 76 71 75 85 81 87 93 94 108 118 116 110 118 115 126 160 149 145 137 136 138 116 111 99 86 83 83 85 90 70 118 202 280 320 355 5 335 317 303 298 294
84 87 71 65 70 72 86 84 89 95 93 91 99 96 85 77 85 74 83 82 94 95 110 111 109 108 104 97 94 102 98 81 89 113 319 330 299 335 332 317 284 282 270
82 83 86 81 69 69 68 74 72 79 81 85 76 75 73 77 70 74 82 83 72 72 70 82 109 123 136 141 122 132 134 108 82 81 239 266 245 303 301 280 302 296 286
79 85 83 79 72 73 66 69 71 68 77 87 92 83 82 73 68 74 73 75 77 74 64 64 110 137 133 149 125 129 113 101 106 114 291 287 304 301 266 260 268 291 291
96 99 97 86 80 82 94 89 82 82 76 75 69 81 72 79 79 80 73 73 72 85 78 51 42 51 52 64 94 137 147 141 171 193 182 241 252 248 254 274 281 311 311
101 91 89 95 94 89 85 88 101 98 89 74 74 78 77 73 78 80 87 79 85 78 82 85 63 41 62 53 35 46 7 349 331 168 207 232 252 240 244 284 267 253 249
115 114 112 111 109 109 105 103 99 89 97 103 96 88 85 90 82 84 83 77 70 66 70 90 96 34 309 224 185 216 301 301 292 259 219 259 238 271 241 247 293 295 301
144 141 138 132 129 132 127 130 116 118 110 115 127 110 102 72 86 77 91 92 77 70 66 48 220 297 290 289 178 232 317 323 332 333 339 333 335 334 319 24 334 325 311
167 163 154 150 147 149 148 145 119 108 110 120 113 113 130 80 97 81 91 92 79 45 20 10 333 291 297 318 44 164 282 311 346 349 347 341 338 331 350 22 306 313 316
154 147 150 153 147 145 135 98 114 106 104 103 108 85 89 121 48 140 150 170 165 121 14 333 319 323 331 342 103 213 153 39 351 352 326 326 337 342 340 328 305 273 285
151 149 150 148 148 146 138 124 123 124 122 130 131 112 53 2 272 208 175 64 187 166 223 286 297 323 345 359 9 311 13 48 18 2 359 340 327 341 334 320 308 305 267
147 155 155 152 144 147 140 141 131 144 144 161 163 165 179 19 16 42 11 326 31 101 256 284 331 22 352 4 301 216 38 19 298 354 347 297 272 295 329 330 323 299 284
160 160 155 153 156 157 147 152 147 158 161 165 173 182 191 263 326 324 300 308 327 23 313 31 299 304 329 302 345 335 297 266 281 298 289 281 287 300 306 291 284 310 294
163 161 160 163 161 159 163 169 172 201 174 169 187 173 170 218 247 237 263 192 237 251 161 136 293 230 290 283 339 315 309 305 298 289 280 286 290 285 294 284 278 294 277
164 166 172 160 157 156 147 125 202 187 191 185 172 166 221 207 229 242 237 198 163 229 165 187 249 234 259 342 313 299 291 309 284 284 288 283 288 290 292 297 281 278 287
172 170 170 164 162 157 153 154 154 175 167 167 168 176 185 219 235 258 244 196 198 262 193 225 247 246 254 293 261 266 280 285 314 304 297 290 292 309 306 291 312 308 292
172 175 169 165 166 163 164 165 159 165 173 188 191 174 195 210 242 261 211 125 249 74 238 228 235 239 239 257 256 263 267 279 276 273 284 296 282 288 303 297 286 306 297
167 169 165 163 165 170 159 157 167 164 180 180 182 219 213 211 228 205 174 192 204 246 254 243 248 251 255 239 267 263 268 277 280 292 272 288 287 282 275 280 271 311 310
172 170 163 160 166 164 164 166 172 182 183 184 192 192 181 196 196 230 201 205 206 232 279 270 283 287 284 283 275 279 279 280 297 293 295 289 292 276 284 282 295 296 292
165 163 163 156 164 165 165 170 171 175 181 183 190 188 192 180 203 205 216 216 220 224 238 234 257 273 282 283 287 293 291 285 285 284 285 282 285 296 278 293 289 283 289
161 158 154 159 154 159 166 163 166 175 176 176 175 200 205 159 188 210 223 229 233 241 250 269 250 251 253 259 272 282 280 281 282 283 281 283 286 278 297 284 280 286 279
152 146 145 148 157 162 161 157 164 171 172 174 172 182 164 171 192 207 220 236 246 255 254 261 281 292 289 285 285 283 276 273 273 274 285 292 291 287 285 282 284 308 296
147 149 150 149 150 150 152 160 167 175 167 170 175 182 179 180 192 205 206 226 255 269 266 255 255 267 277 278 276 275 276 279 280 290 288 289 289 291 286 279 280 281 282
147 143 140 143 151 149 156 162 164 164 168 170 179 181 179 179 190 201 204 203 230 245 265 270 258 266 276 283 279 282 281 286 288 288 287 281 278 281 276 274 278 277 275
134 136 134 139 144 158 158 162 165 167 170 172 176 179 179 183 193 198 217 217 249 269 284 265 266 274 286 288 290 302 309 305 300 294 290 284 282 279 276 272 273 274 276